View from above orbital plane
|
View from above satellite
|
Ground track
|
The orbit data is extracted from the following two-line orbital elements,
1 31114U 07010B 21058.07649674 -.00000016 00000-0 11464-4 0 9995
2 31114 98.2378 259.5071 0058649 244.3171 115.1942 14.19347896719138
Epoch (UTC): | 27 February 2021 01:50:09 |
Eccentricity: | 0.0058649 |
inclination: | 98.2378° |
perigee height: | 785 km |
apogee height: | 870 km |
right ascension of ascending node: | 259.5071° |
argument of perigee: | 244.3171° |
revolutions per day: | 14.19347896 |
mean anomaly at epoch: | 115.1942° |
orbit number at epoch: | 71913 |
The dashed part of the orbit path shows where the satellite is in the earth's shadow,
|
|